Location: Aardam
(52.1667°N, 4.7667°E)
Time: 04:35:48
(UTC+00:00)

Daily predictions for brighter satellites

Satellite Brightness Start Highest point End
(mag) Time Altitude Azimuth Time Altitude Azimuth Time Altitude Azimuth
ATLAS 3B R/B 4.2 02:51:26 30° NE 02:51:26 30° NE 02:55:37 10° E
Cosmos 2263 Rocket 4.3 03:02:59 22° ENE 03:02:59 22° ENE 03:06:02 10° E
CENTAUR R/B 3.6 03:11:12 54° NE 03:11:12 54° NE 03:19:14 10° ESE
USA 215 4.1 03:08:28 10° E 03:12:48 44° E 03:12:48 44° E
USA 238 DEB 4.2 03:47:11 53° SSE 03:47:11 53° SSE 03:52:37 10° SE
USA 238 4.2 03:47:16 53° SSE 03:47:16 53° SSE 03:52:43 10° SE
Cosmos 1980 Rocket 3.5 03:51:19 31° SE 03:52:38 35° ESE 03:57:44 10° NE
Cosmos 1697 Rocket 3.3 03:59:57 54° ENE 03:59:57 54° ENE 04:04:30 10° NE
Nadezhda 1 Rocket 4.3 03:59:57 45° SE 04:01:35 60° E 04:07:34 10° NNE
Cosmos 2369 Rocket 4.5 04:04:15 13° N 04:04:15 13° N 04:05:43 10° NNE
Cosmos 2227 4.2 04:19:26 76° ENE 04:19:26 76° ENE 04:24:58 10° SE
CZ-2C R/B 3.5 04:15:41 10° NNE 04:18:42 38° NNE 04:18:42 38° NNE
Okean O Rocket 4.4 04:23:04 10° NE 04:26:12 18° E 04:29:19 10° SE
CZ-4B R/B 4.1 04:29:56 10° NNE 04:32:52 40° NNE 04:32:52 40° NNE
Meteor 1-21 Rocket 4.2 04:32:07 40° NNW 04:34:26 87° WSW 04:40:22 10° S
NOSS 3-2 (C) 3.9 04:35:53 54° WNW 04:37:40 70° SW 04:45:56 10° SSE
Cosmos 2154 Rocket 3.9 04:31:48 10° NNW 04:38:41 61° SW 04:44:04 10° S
Lacrosse 5 rocket 2.4 04:38:47 42° NNE 04:38:47 42° NNE 04:42:29 10° ENE
Cosmos 1656 4.3 04:40:33 39° NNW 04:40:33 39° NNW 04:44:35 10° NNE
STARLINK-48 4.5 04:41:40 46° E 04:41:40 46° E 04:44:30 10° ENE
ATLAS 3B R/B 2.6 04:38:42 46° NW 04:40:56 82° NE 04:47:50 10° SE
NOSS 2-2 (C) 4.0 04:42:14 50° NE 04:42:14 50° NE 04:45:36 10° NE
Cosmos 2322 Rocket 4.4 04:39:04 10° SSE 04:43:36 25° ESE 04:48:09 10° NE
Cosmos 2263 Rocket 2.1 04:44:42 54° NNW 04:46:05 90° WSW 04:51:46 10° SSE
Cosmos 1295 Rocket 4.3 04:43:02 10° NNW 04:49:14 70° W 04:55:18 10° S
NOSS 2-2 (E) 3.8 04:51:46 56° NNE 04:51:46 56° NNE 04:55:31 10° NE
Cosmos 1606 Rocket 4.0 04:47:59 10° S 04:52:21 60° E 04:56:43 10° NNE
Cosmos 1726 Rocket 4.4 04:48:59 10° S 04:53:16 50° E 04:57:34 10° NNE
Cosmos 1538 Rocket 3.9 04:52:25 61° SW 04:53:19 78° WNW 04:58:39 10° NNE
NOSS 3-1 (A) 4.5 04:52:15 31° NNW 04:53:40 34° N 05:00:14 10° NE
COSMO-SKYMED 1 3.1 04:50:52 10° S 04:54:01 47° S 04:54:01 47° S
USA 32 4.0 04:51:57 10° N 04:57:14 82° E 05:02:30 10° S
NOSS 3-2 (A) 4.3 04:56:26 42° WSW 04:57:28 44° WSW 05:05:11 10° S
Cosmos 1953 3.5 04:59:16 33° N 04:59:16 33° N 05:01:37 10° N
USA 215 3.2 04:51:35 10° SE 04:58:04 65° SW 05:00:09 44° W
Cosmos 1844 Rocket 4.0 04:54:06 15° NNW 04:58:15 36° NE 05:03:26 10° ESE
FALCON 9 DEB 3.9 05:00:28 50° SE 05:00:28 50° SE 05:03:11 10° ESE
COSMOS 2455 2.8 04:56:34 27° SSW 05:00:00 82° SE 05:06:04 10° NE
PSLV R/B 3.8 04:56:34 10° NNE 05:00:24 72° ESE 05:01:15 50° S
ADEOS Rocket 3.7 04:55:13 10° SE 05:00:28 48° ENE 05:06:05 10° N
Cosmos 2366 rocket 4.2 04:54:57 10° N 05:01:20 71° ENE 05:07:41 10° SSE
Cosmos 2360 4.1 04:59:39 46° SW 05:01:21 72° NW 05:07:07 10° NNE
CENTAUR R/B 3.1 04:58:24 35° WNW 05:02:05 66° SW 05:10:39 10° SSE
ALOS 2.6 04:57:28 10° NNE 05:02:09 67° ESE 05:06:48 10° S
Cosmos 2344 3.5 05:00:22 32° WSW 05:04:16 79° NW 05:13:00 10° NE
STARLINK-26 3.6 05:04:45 61° ESE 05:04:45 61° ESE 05:07:45 10° ENE
STARLINK-34 4.2 05:04:23 43° S 05:05:01 47° SSE 05:08:54 10° ENE
Orbus 7S? 4.0 05:07:24 41° SSW 05:07:24 41° SSW 05:12:00 10° SE
STARLINK-24 4.2 05:06:40 42° S 05:07:25 48° SSE 05:11:19 10° ENE
Cosmos 962 Rocket 4.4 05:01:20 10° NNW 05:07:33 63° W 05:13:46 10° S
Cosmos 2228 3.1 05:04:15 10° S 05:08:38 79° E 05:13:04 10° NNE
STARLINK-81 4.3 05:08:11 39° S 05:09:05 47° SSE 05:12:57 10° ENE
Cosmos 1726 2.0 05:08:35 50° S 05:09:28 82° E 05:13:08 10° NNE
H-2A R/B 4.5 05:07:11 10° N 05:08:01 15° N 05:08:01 15° N
STARLINK-54 4.2 05:10:02 41° SSW 05:10:55 50° SSE 05:14:49 10° ENE
STARLINK-77 4.2 05:11:21 39° SSW 05:12:21 49° SSE 05:16:16 10° ENE
Cosmos 2278 3.8 05:11:32 42° WSW 05:13:08 57° NW 05:18:47 10° NNE
STARLINK-25 4.2 05:12:58 38° SSW 05:14:02 50° SSE 05:17:56 10° ENE
STARLINK-71 4.1 05:14:49 40° SSW 05:15:51 54° SSE 05:19:48 10° ENE
STARLINK-43 3.2 05:16:19 74° NNW 05:16:28 76° N 05:20:12 10° E
STARLINK-79 4.1 05:16:06 37° SSW 05:17:16 52° SSE 05:21:12 10° ENE
Cosmos 1943 Rocket 4.4 05:16:13 10° NNW 05:17:37 11° N 05:19:01 10° NNE
STARLINK-78 4.1 05:17:47 37° SSW 05:19:00 53° SSE 05:22:56 10° ENE
Lacrosse 5 3.9 05:15:33 10° S 05:19:46 27° SE 05:24:01 10° ENE
STARLINK-57 4.0 05:19:29 37° SSW 05:20:44 55° SSE 05:24:41 10° ENE
STARLINK-29 3.2 05:20:40 66° SSW 05:20:44 67° SSW 05:24:15 10° ESE
STARLINK-52 3.1 05:22:00 68° SW 05:22:08 70° SSW 05:25:37 10° ESE
STARLINK-49 4.0 05:20:55 35° SSW 05:22:16 55° SSE 05:26:14 10° ENE
FENGYUN 3A 3.6 05:17:58 10° NNE 05:23:25 89° WNW 05:28:50 10° SSW
Cosmos 2369 4.2 05:22:21 36° WNW 05:23:27 40° NW 05:28:51 10° NNE
STARLINK-27 4.0 05:22:32 35° SW 05:23:56 56° SSE 05:27:54 10° ENE
SL-16 R/B 3.0 05:18:33 10° S 05:24:03 54° ESE 05:29:35 10° NE
Cosmos 1680 Rocket 3.7 05:19:53 10° SSW 05:25:12 75° ESE 05:30:32 10° NNE
STARLINK-74 4.0 05:24:06 34° SW 05:25:35 57° SSE 05:29:32 10° ENE
SOZ 4.0 05:25:39 85° SW 05:25:40 86° S 05:27:53 10° E
Cosmos 1371 Rocket 3.9 05:23:21 21° NNW 05:26:56 75° WSW 05:32:15 10° SSE
NOAA 6 4.5 05:21:49 10° NNE 05:27:00 65° ESE 05:32:10 10° S
STARLINK-39 4.0 05:25:42 33° SW 05:27:14 58° SSE 05:31:12 10° ENE
STARLINK-75 3.7 05:26:09 41° SW 05:27:16 63° SSE 05:31:03 10° ENE
Cosmos 1328 3.7 05:26:46 41° NW 05:27:51 58° W 05:31:45 10° S
STARLINK 3.9 05:27:20 33° SW 05:28:55 59° SSE 05:32:54 10° ENE
ATLAS 2AS CENTAUR R/B 3.1 05:21:42 10° SW 05:29:43 82° SE 05:37:41 10° NE
Cosmos 2360 Rocket 4.2 05:25:31 10° SSE 05:30:20 29° ESE 05:35:10 10° NE
STARLINK-69 3.8 05:29:07 33° SW 05:30:43 63° SSE 05:34:42 10° ENE
STARLINK-21 3.9 05:30:30 31° SW 05:32:13 61° SSE 05:36:12 10° ENE
STARLINK-61 3.5 05:31:07 41° WSW 05:32:23 78° SSE 05:36:21 10° ENE
STARLINK-33 3.5 05:31:21 40° SW 05:32:24 64° SSE 05:35:58 10° ENE
CZ-4B R/B 3.6 05:26:59 10° NNE 05:32:33 66° ESE 05:37:58 10° S
Cosmos 1437 4.3 05:30:33 10° N 05:33:22 33° ENE 05:36:10 10° SE
STARLINK-45 3.8 05:32:24 32° SW 05:34:05 66° SSE 05:38:05 10° ENE
STARLINK-41 3.7 05:32:38 33° SW 05:34:06 63° SSE 05:37:52 10° ENE
STARLINK-66 3.4 05:33:22 40° SW 05:34:28 66° SSE 05:38:01 10° ENE
STARLINK-70 3.8 05:33:51 31° SW 05:35:38 65° SSE 05:39:38 10° ENE
Cosmos 1844 4.4 05:30:36 11° NNW 05:35:53 49° NE 05:41:16 10° SE
STARLINK-55 3.4 05:35:04 39° SW 05:36:13 68° SSE 05:39:45 10° ENE
SL-8 Rocket 4.0 05:30:17 10° NNW 05:36:22 57° W 05:42:21 10° S
Cosmos 1980 Rocket 2.3 05:33:10 24° WSW 05:36:29 52° NW 05:42:02 10° NNE
STARLINK-76 3.8 05:35:16 29° SW 05:37:09 64° SSE 05:41:09 10° ENE
USA 116 4.1 05:33:24 10° S 05:37:47 48° W 05:39:42 27° NW
STARLINK-28 3.3 05:36:48 39° SW 05:37:59 72° SSE 05:41:32 10° ENE
Cosmos 1953 Rocket 3.9 05:37:07 29° NW 05:38:47 41° W 05:42:55 10° SSW
STARLINK 3.8 05:36:52 28° SW 05:38:49 66° SSE 05:42:49 10° ENE
Cosmos 1420 Rocket 4.4 05:34:11 10° NNW 05:39:29 67° ENE 05:44:46 10° SE
STARLINK 3.7 05:38:02 29° SW 05:39:46 63° SSE 05:43:33 10° ENE
MOS 1-B 4.2 05:34:07 10° NNE 05:39:54 74° WNW 05:45:41 10° SSW
Meteor 1-16 Rocket 4.2 05:34:03 10° SSW 05:39:54 67° WNW 05:45:43 10° N
STARLINK-32 3.8 05:38:28 28° SW 05:40:29 67° SSE 05:44:29 10° ENE
STARLINK-40 3.7 05:40:04 27° SW 05:42:08 68° SSE 05:46:09 10° ENE
Cosmos 2181 Rocket 3.9 05:35:58 10° SSW 05:42:10 69° WNW 05:48:32 10° N
Cosmos 2112 Rocket 4.1 05:37:31 10° SSW 05:42:53 87° ESE 05:48:17 10° NNE
Cosmos 1697 Rocket 3.4 05:41:43 27° WNW 05:43:20 32° NW 05:48:21 10° NNE
STARLINK-44 3.7 05:41:39 26° SW 05:43:46 69° SSE 05:47:47 10° ENE
STARLINK-37 3.7 05:43:22 26° WSW 05:45:32 71° SSE 05:49:33 10° ENE
Cosmos 2341 Rocket 4.4 05:41:08 10° NNW 05:46:48 37° W 05:52:25 10° SSW
STARLINK-36 3.7 05:44:49 25° WSW 05:47:04 71° SSE 05:51:06 10° ENE
Genesis I 4.2 05:47:04 26° WSW 05:47:13 26° WSW 05:50:27 10° S
Cosmos 1908 3.1 05:43:21 10° SSW 05:47:15 67° WNW 05:51:10 10° N
PAYLOAD B 4.2 05:42:09 10° NNE 05:47:47 77° WNW 05:53:23 10° SSW
STARLINK-68 3.6 05:46:39 25° WSW 05:48:54 75° SSE 05:52:56 10° ENE
Cosmos 2369 Rocket 4.4 05:47:24 10° NNW 05:49:20 12° N 05:51:16 10° NNE
STARLINK-63 3.6 05:48:08 24° WSW 05:50:29 74° SSE 05:54:30 10° ENE
STARLINK-35 3.6 05:49:35 23° WSW 05:52:01 74° SSE 05:56:03 10° ENE
STARLINK-60 4.3 05:52:23 25° WSW 05:53:10 28° SSW 05:56:06 10° SSE
NOSS 2-2 (D) 4.1 05:51:56 28° WNW 05:53:17 37° NNW 05:57:37 10° NE
STARLINK-51 3.6 05:51:11 22° WSW 05:53:41 75° SSE 05:57:43 10° ENE
Cosmos 1484 Rocket 4.1 05:51:15 10° N 05:53:15 21° NW 05:53:15 21° NW
SJ-12 4.4 05:51:12 10° N 05:54:57 37° WNW 05:58:42 10° SW
Cosmos 1624 Rocket 4.1 05:50:59 15° NW 05:55:11 51° WSW 06:00:11 10° S
STARLINK-30 3.6 05:52:47 22° WSW 05:55:19 76° SSE 05:59:22 10° ENE
Lacrosse 4 Rocket 3.9 05:54:36 10° N 05:55:46 11° NNE 05:56:56 10° NNE
STARLINK-72 3.6 05:54:22 21° WSW 05:57:00 77° SSE 06:01:02 10° ENE
STARLINK-80 3.4 05:55:45 28° W 05:57:39 77° N 06:01:27 10° E
CZ-2C R/B 3.9 05:54:59 10° NNW 05:58:06 19° NW 05:58:06 19° NW
STARLINK-50 3.6 05:55:57 20° WSW 05:58:38 78° SSE 06:02:41 10° ENE
SMAP 3.8 05:55:03 10° NNE 05:59:40 58° E 06:04:15 10° S
STARLINK-59 3.6 05:57:40 20° WSW 06:00:22 80° SSE 06:04:24 10° ENE
STARLINK-56 3.6 05:59:09 19° WSW 06:01:58 80° SSE 06:06:00 10° ENE
Okean O Rocket 1.6 05:58:34 10° N 06:03:00 64° WNW 06:07:23 10° SSW
Cosmos 1703 4.2 06:02:02 22° WNW 06:03:14 26° W 06:06:32 10° SSW
Meteor 1-11 4.5 05:58:10 10° NNW 06:03:29 46° W 06:08:50 10° SSW
Starlink (trailer) 3.6 06:00:43 18° WSW 06:03:36 81° SSE 06:07:38 10° ENE
Cosmos 2058 3.4 06:00:51 10° N 06:05:02 62° ENE 06:09:13 10° SSE
STARLINK-38 3.6 06:02:19 18° WSW 06:05:16 82° SSE 06:09:19 10° ENE
STARLINK 1040 4.0 06:02:52 11° SW 06:05:25 36° SSE 06:08:05 10° E
STARLINK-65 3.6 06:03:54 17° WSW 06:06:55 82° SSE 06:10:57 10° ENE
NOSS 5 (C) 4.4 06:04:56 21° NW 06:06:57 80° NE 06:10:46 10° SE
Cosmos 1892 4.0 06:03:33 10° N 06:07:14 41° ENE 06:10:52 10° SE
STARLINK-53 3.5 06:05:36 17° WSW 06:08:39 84° SSE 06:12:42 10° ENE
CZ-4B R/B 4.4 06:05:54 10° NNW 06:08:54 18° WNW 06:09:00 18° WNW
Cosmos 1821 Rocket 4.0 06:03:19 10° N 06:09:34 90° ENE 06:15:41 10° S
Cosmos 2056 Rocket 4.0 06:05:36 11° NW 06:10:27 42° WSW 06:15:31 10° S
Cosmos 2218 Rocket 4.5 06:08:47 10° NNW 06:14:36 38° W 06:20:21 10° SSW
Nadezhda 3 Rocket 4.2 06:08:32 10° S 06:14:40 78° E 06:20:54 10° NNE
Cosmos 2278 Rocket 3.5 06:09:50 10° NNW 06:15:02 35° NE 06:20:13 10° ESE
STARLINK-42 3.3 06:13:44 15° WSW 06:16:43 89° SSE 06:20:28 10° ENE
Lacrosse 5 rocket 1.8 06:14:25 17° WNW 06:17:54 60° NNE 06:22:16 10° E
Cosmos 2058 Rocket 3.5 06:13:55 10° SW 06:18:02 39° WNW 06:22:10 10° N
Helios 1A Rocket 3.0 06:14:26 10° N 06:18:29 56° WNW 06:22:32 10° SSW
Cosmos 923 Rocket 4.5 06:14:12 10° WSW 06:19:08 39° NW 06:24:09 10° NNE
STARLINK-48 3.4 06:16:26 18° W 06:19:18 77° N 06:23:13 10° E
STARLINK 1060 4.4 06:16:44 10° SW 06:20:15 44° SSE 06:23:47 10° E
Cosmos 1340 Rocket 3.5 06:16:27 10° S 06:20:16 57° E 06:24:08 10° NNE
STARLINK-58 3.5 06:18:15 13° WSW 06:21:50 90° ENE 06:25:53 10° ENE
STARLINK 1030 4.3 06:19:52 10° SW 06:23:25 46° SSE 06:26:59 10° E
STARLINK-62 3.5 06:19:55 13° WSW 06:23:31 89° NNW 06:27:35 10° ENE
STARLINK-64 3.3 06:21:56 13° WSW 06:25:19 88° NNW 06:29:07 10° ENE
STARLINK 1020 4.3 06:23:01 10° SW 06:26:35 48° SSE 06:30:11 10° ENE
Cosmos 2322 Rocket 2.2 06:21:30 10° SW 06:27:10 70° NW 06:32:54 10° NNE
Cosmos 1867 3.8 06:22:21 10° NW 06:27:50 69° NE 06:33:16 10° SE
Cosmos 2263 Rocket 3.6 06:26:26 13° WNW 06:29:15 18° W 06:32:59 10° SW
STARLINK 1034 4.2 06:26:13 10° SW 06:29:48 49° SSE 06:33:24 10° ENE
ATLAS 3B R/B 3.6 06:25:58 12° WNW 06:31:03 29° WSW 06:36:47 10° S
Cosmos 1825 4.0 06:27:57 10° N 06:31:22 31° ENE 06:34:46 10° SE
Cosmos 1953 4.3 06:35:01 11° NW 06:35:01 11° NW 06:35:49 10° NW
STARLINK 1033 4.1 06:32:37 10° SW 06:36:15 53° SSE 06:39:52 10° ENE
EXPRESS MD2 2.9 06:35:22 11° W 06:37:52 43° S 06:39:56 10° ESE
Cosmos 332 Rocket 4.3 06:34:04 10° NNW 06:38:50 60° ENE 06:43:35 10° SE
ALOS 3.5 06:35:40 10° N 06:39:10 21° WNW 06:42:38 10° WSW
Cosmos 371 Rocket 3.5 06:35:47 10° NNW 06:40:40 76° ENE 06:45:31 10° SSE
CZ-4 R/B 3.0 06:36:40 10° NNE 06:40:43 42° E 06:44:44 10° S
Cosmos 1076 Rocket 3.7 06:36:39 10° NNW 06:40:56 53° W 06:45:11 10° S
Cosmos 2333 Rocket 4.0 06:35:53 10° S 06:41:08 38° ESE 06:46:25 10° NE
STARLINK-26 3.1 06:38:01 11° W 06:41:21 75° N 06:44:50 10° E
Cosmos 1844 Rocket 2.9 06:36:55 10° NW 06:42:24 54° WSW 06:47:53 10° S
Iridium 96 3.6 06:40:57 10° SSW 06:43:22 49° W 06:45:41 10° N
STARLINK-34 3.5 06:39:57 10° W 06:43:58 82° N 06:48:00 10° E
YAOGAN 1 4.4 06:41:01 10° NNE 06:45:03 37° E 06:49:04 10° SSE
Cosmos 1726 4.0 06:44:02 10° W 06:45:15 11° WNW 06:46:28 10° NW
NOSS 3-4 (A) 3.6 06:39:33 10° WSW 06:45:34 59° NW 06:52:06 10° NE
NOSS 3-4 (C) 3.6 06:39:39 10° WSW 06:45:40 59° NW 06:52:12 10° NE
ADEOS Rocket 3.5 06:41:24 10° SSW 06:46:18 33° W 06:51:29 10° NNW
STARLINK-24 3.5 06:42:25 10° W 06:46:28 82° N 06:50:30 10° E
COSMOS 2455 3.6 06:41:11 10° W 06:46:34 33° NNW 06:52:00 10° NNE
Cosmos 1934 Rocket 4.0 06:41:19 10° NNW 06:47:26 78° W 06:53:35 10° S
STARLINK-81 3.5 06:44:04 10° W 06:48:07 82° N 06:52:10 10° E
CZ-2C R/B 3.9 06:43:56 10° S 06:48:24 53° WSW 06:52:50 10° NNW
STARLINK-54 3.5 06:45:56 10° W 06:49:58 81° N 06:54:01 10° E
STARLINK-77 3.5 06:47:22 10° W 06:51:24 81° N 06:55:28 10° E
CENTAUR R/B 4.4 06:46:12 10° WNW 06:51:47 20° WSW 06:57:38 10° SSW
Cosmos 1452 Rocket 3.9 06:47:54 10° NW 06:52:56 47° WSW 06:57:55 10° S
STARLINK-25 3.5 06:49:03 10° W 06:53:05 81° N 06:57:08 10° E
Envisat 3.0 06:48:07 10° NNE 06:53:14 81° WNW 06:58:19 10° SSW
STARLINK-43 3.6 06:50:46 10° WNW 06:54:27 63° SSW 06:58:07 10° ESE
STARLINK-71 3.6 06:50:54 10° W 06:54:57 80° N 06:59:00 10° E
STARLINK-79 3.5 06:52:18 10° W 06:56:21 80° N 07:00:24 10° E
STARLINK-78 3.6 06:54:03 10° W 06:58:05 80° N 07:02:08 10° E
Cosmos 1110 Rocket 4.2 06:52:55 10° NNW 06:58:16 84° ENE 07:03:36 10° SSE
Cosmos 158 Rocket 4.5 06:54:11 10° WSW 06:58:38 34° NW 07:03:12 10° NNE
STARLINK 1044 3.7 06:55:25 10° WSW 06:59:07 69° SSE 07:02:50 10° ENE
STARLINK-57 3.6 06:55:47 10° W 06:59:50 79° N 07:03:53 10° E
Lacrosse 5 2.0 06:57:11 10° WSW 07:02:18 89° SE 07:07:24 10° ENE
